DELTA 1 DEB, 10837

Orbit data source: Space-Track

DELTA 1 DEB, 10837 is space debris in SSO originally from a launch on Thu, 29 Jul 1976 UTC launched from the Air Force Western Test Range (AFWTR). Debris objects in space refer to the collection of defunct objects orbiting the Earth. Examples of debris include non-operational satellites, rocket bodies, and fragments generated from explosions, collisions, or faulty payload assembly.

Loading next visibility...
Identifier
10837, 1976-077CH
Orbit
SSO
Country
Flag of USUS
Related business
Manufacturer
Unknown
Mission
Spacecraft
Bus & Motor
Unknown
Mass
Unknown
Launch date (UTC)
1976-07-29 (49 years ago)
Launch vehicle
Unknown
Launch site
Air Force Western Test Range (AFWTR)
Object type
Payload
Rocket body
Debris
Shape & HBR
Unknown shape, 0.1 m
Radar Cross Section
Small (<0.1 m²)

Expand to show TLE details & history
Last TLE update: 1 day ago

TLE from 1 day ago
0 DELTA 1 DEB
1 10837U 76077CH  25290.28929928 -.00000042  00000-0  14131-5 0  9995
2 10837 102.3073 226.4975 0198123 237.6775 279.8663 12.04480658164373
Epoch: 2025-10-17T06:56Z
TLE epoch observation values (Epoch: 2025-10-17T06:56:35.457Z)
Latitude
24.12206°
Longitude
-78.10783°
Altitude
1,639.188 km
Speed
7.065 km/s
True Right ascension
03h 28m 18s
True Declination
24° 00' 29"
Sunlit
Object was in full shadow at epoch
Visualization orbit readout
Latitude
Unknown
Longitude
Unknown
Altitude
Unknown
Speed
Unknown
Apparent Right ascension
Unknown
Apparent Declination
Unknown
Sunlit
N/A
Visualization observer readout
Local Sidereal Time
10:38:31
Azimuth
Unknown
Elevation
Unknown
Doppler factor
Unknown
Orbital elements
Apogee altitude
1,817.724 km
Perigee altitude
1,499.276 km
Semi-major axis
8,036.637 km
Eccentricity
0.01981
Inclination
102.3073°
RAAN
226.4975°
Arg. of periapsis
237.6775°
True anomaly
277.6206°
Mean anomaly
279.8663°
Eccentric anomaly
278.74433°
Mean motion
3.01253 °/min
Orbital period
119.5 mins
BSTAR
0.0000014131
Loading maneuver chart data...
Computing Atmospheric mass density...
Loading historical data...
Loading historical data...
Loading historical data...
Loading historical data...
Loading historical data...
Loading historical data...
Loading historical data...

Documentation

Showing up to 5 results
|